Theta_e
281 282 281 281 282 281 281 281 282 282 282 281 282 281 281 282 282 282 281 282 281 281 280 280 280 281 280 282 280 280 280 280 281 280 280 280 280 280 280 280 280 279 281 280 280 281 280 280 279 280 280 279 279 280 280 280 280 280 280 279 278 278 277 276 275 275 277 278 278 278 279 279 278 279 278 279 279 280 282 280 280 280 280 280 280
281 282 281 282 281 282 281 280 281 281 281 281 282 281 281 282 282 281 281 282 281 281 281 280 280 280 279 280 281 280 280 280 280 280 281 280 279 282 281 280 279 279 280 279 279 280 280 279 279 279 279 279 279 279 279 279 279 278 278 279 277 278 278 277 276 276 274 277 277 278 278 279 277 279 278 278 278 279 279 279 280 280 280 280 280
282 282 282 281 281 282 282 281 281 280 281 281 281 282 281 281 281 282 282 281 281 281 281 281 281 281 280 280 280 279 280 280 280 281 281 280 280 280 282 280 280 279 279 279 279 279 279 279 279 279 281 279 279 279 279 279 279 278 278 278 278 278 278 278 276 275 275 275 276 276 277 278 277 277 278 279 279 279 278 278 279 280 280 280 280
282 282 281 282 282 281 281 282 281 281 281 281 281 281 281 281 282 281 282 281 281 282 281 281 281 281 280 280 279 280 280 280 281 281 281 281 280 281 281 281 280 280 280 280 279 279 279 278 279 279 279 279 279 279 279 278 278 278 278 278 278 277 278 277 277 276 275 274 275 276 277 276 277 278 279 279 278 278 278 278 279 279 279 279 279
282 282 281 282 281 281 281 281 281 281 281 281 281 281 281 281 281 282 281 281 281 281 282 281 281 281 282 281 281 280 281 281 281 281 281 281 281 281 281 280 280 280 281 280 282 280 280 280 279 279 278 278 278 278 279 278 278 278 278 278 277 278 278 277 276 276 275 274 275 276 277 277 277 277 278 277 277 277 278 277 278 278 278 278 279
282 282 281 281 281 281 281 281 281 281 282 281 281 281 281 281 281 282 282 282 281 281 281 281 282 281 281 281 281 281 281 281 280 281 281 281 281 281 281 281 281 281 281 281 280 280 280 280 280 279 279 279 279 279 278 278 278 278 277 277 277 277 276 276 276 275 275 275 275 275 276 275 275 276 277 277 276 275 276 276 277 277 277 276 277
282 282 282 281 282 281 281 281 282 282 282 282 282 281 281 281 281 281 281 281 281 281 281 281 282 282 282 281 281 281 281 281 281 280 280 280 280 280 280 280 281 281 281 281 280 280 280 280 280 279 279 279 279 278 278 278 278 277 278 277 277 277 276 276 276 275 275 275 275 275 275 276 275 275 276 276 276 275 274 274 274 276 276 275 275
282 282 281 281 282 282 282 282 281 282 282 282 282 282 281 281 281 281 281 281 281 281 281 281 282 281 282 281 282 281 281 281 281 281 281 280 280 280 280 281 280 280 280 280 280 280 280 280 280 280 279 279 279 278 278 278 278 277 278 278 277 277 276 276 276 275 275 275 274 274 275 275 275 275 276 275 274 274 275 274 273 273 274 275 275
282 282 281 281 282 283 282 281 282 281 281 282 282 282 282 281 281 281 280 281 282 282 282 281 281 281 281 281 281 281 281 282 282 282 281 280 280 280 281 281 280 280 280 280 280 280 280 280 280 279 282 285 284 284 284 283 281 279 278 277 277 277 276 276 276 275 275 275 274 275 274 274 274 274 274 273 273 273 274 274 273 274 274 274 275
282 282 281 282 283 282 282 281 282 281 281 281 281 281 281 281 281 281 281 281 281 281 281 281 281 281 281 281 281 281 282 282 284 286 286 283 281 281 281 280 280 280 280 280 280 280 280 279 281 283 284 284 284 285 285 286 285 283 281 279 278 277 277 276 276 276 275 274 274 274 273 273 274 274 273 274 274 274 273 273 273 274 274 274 276
282 282 282 283 283 282 281 281 281 281 281 281 281 281 281 281 281 281 281 281 281 281 281 281 281 281 281 281 281 281 282 283 286 288 289 289 285 281 280 280 280 280 279 279 279 279 279 278 278 281 283 283 283 284 284 284 284 283 283 283 282 279 277 276 276 275 275 275 275 274 273 273 274 274 274 274 274 273 273 274 274 274 274 273 272
282 282 283 283 282 282 281 281 280 281 281 281 281 281 281 280 281 281 281 281 281 281 280 281 281 281 282 281 281 282 282 285 287 288 289 290 289 285 281 280 280 279 279 279 279 279 279 278 278 279 279 279 279 279 280 282 282 282 282 282 282 282 282 279 277 275 275 274 274 274 274 273 273 274 273 274 273 274 275 275 275 274 274 273 273
282 282 283 282 282 282 281 281 281 281 281 281 281 281 280 280 281 281 281 281 281 280 281 281 281 281 281 281 281 282 282 285 288 289 289 289 289 288 283 281 280 280 280 279 279 279 279 278 278 278 279 281 282 280 278 278 280 281 281 281 281 281 281 281 281 279 277 276 275 274 274 274 273 273 274 274 276 274 275 275 275 275 275 274 274
281 282 282 282 282 282 281 281 281 281 281 281 281 280 280 281 281 281 281 281 281 281 281 281 281 281 281 281 281 282 282 284 287 288 288 289 289 289 284 283 282 281 281 280 280 279 278 278 278 278 279 278 278 277 277 277 277 276 276 275 275 277 279 280 280 281 280 277 275 274 275 275 274 275 276 277 276 275 275 275 275 275 275 274 276
282 282 282 282 282 281 281 281 281 282 281 281 280 280 281 281 281 281 281 281 281 281 281 281 281 281 281 281 281 281 282 286 288 288 288 289 289 289 284 284 282 281 281 280 280 279 279 279 279 278 278 277 278 279 278 278 277 277 276 275 275 275 275 276 275 275 276 276 275 275 276 276 276 276 277 278 278 278 278 277 277 276 276 276 275
282 282 282 282 282 281 281 281 281 281 281 281 280 281 281 281 281 281 280 280 280 280 280 280 281 281 281 281 280 281 282 286 287 288 288 289 289 286 283 282 281 280 280 279 279 279 279 279 278 278 277 277 278 280 280 279 277 276 276 275 275 275 275 278 280 280 279 278 278 277 277 278 280 279 279 279 279 279 279 278 277 276 274 272 270
282 282 282 282 282 282 281 281 281 281 281 280 280 281 281 281 281 281 280 280 280 280 280 281 281 281 281 280 280 281 281 284 286 287 288 289 288 284 281 280 280 279 279 279 279 279 279 278 278 277 277 277 278 280 280 280 277 276 275 275 275 275 275 276 279 280 281 281 281 281 282 282 282 282 282 282 280 280 277 274 272 273 270 268 268
283 282 282 283 283 282 281 281 281 281 280 280 281 281 281 280 281 280 280 280 280 280 280 280 280 280 280 280 280 280 281 282 285 287 287 288 287 281 279 279 278 277 277 277 278 278 278 279 279 278 277 277 279 279 280 279 277 275 275 274 274 273 274 275 276 276 279 280 280 281 281 281 281 281 281 281 280 279 274 270 271 271 269 269 267
283 283 283 283 282 282 281 281 281 281 281 281 281 281 280 281 280 280 280 280 280 280 280 279 280 279 280 280 280 280 280 281 284 286 287 288 286 279 278 277 276 276 276 276 277 277 277 278 279 278 278 278 279 280 280 279 276 275 274 274 273 273 274 274 275 275 275 276 276 277 278 278 277 276 276 278 278 277 274 272 272 270 268 268 268
284 283 283 282 282 281 281 281 281 281 281 281 281 281 280 280 280 279 279 279 280 279 279 279 279 279 279 279 279 279 279 279 280 286 288 288 284 278 277 276 276 275 275 275 275 274 275 275 277 278 279 279 279 280 280 280 277 275 275 274 273 273 275 275 276 276 276 277 276 275 274 274 274 274 274 274 274 274 274 273 272 270 269 268 267
283 283 282 282 281 281 281 281 281 281 281 281 281 280 280 280 280 279 279 279 278 278 278 278 278 278 278 278 278 278 278 278 280 287 287 286 284 281 276 276 275 275 274 274 274 274 274 275 275 277 278 279 279 279 279 279 279 277 276 275 275 276 278 277 277 277 275 274 274 273 273 274 273 273 273 272 272 271 271 272 271 271 270 268 267
283 282 281 281 281 281 281 281 281 281 281 280 280 280 280 279 280 279 278 277 277 278 277 275 276 276 274 275 275 276 276 279 280 285 286 285 284 283 277 276 276 275 275 274 275 275 275 275 275 276 277 278 278 278 278 279 279 277 277 279 280 280 278 277 275 274 274 273 272 272 271 270 269 269 269 269 269 270 270 270 271 270 270 270 268
282 282 281 281 281 281 281 280 281 281 281 280 280 280 279 277 278 277 277 277 277 277 276 275 275 274 272 272 273 274 275 276 280 279 283 283 283 282 282 280 281 278 276 275 275 275 275 274 274 276 277 277 277 278 279 279 279 278 279 280 279 279 277 274 274 273 271 270 268 267 266 266 266 266 267 268 269 269 269 269 269 269 269 269 269
282 281 280 280 281 280 280 280 280 280 280 280 279 279 279 278 277 276 276 276 275 276 274 274 273 272 273 272 272 272 273 274 278 279 279 281 281 281 281 281 280 277 276 275 275 274 273 272 272 276 277 277 278 278 279 278 278 278 278 278 277 277 274 272 270 269 268 266 265 265 265 266 266 266 267 268 268 268 268 268 268 268 267 267 267
281 280 280 280 280 280 280 280 279 279 279 279 278 278 277 275 276 274 274 275 275 275 275 273 273 273 272 273 272 272 273 273 274 278 280 280 280 280 279 278 278 277 274 273 272 272 274 276 277 277 277 277 277 277 276 276 276 276 276 277 275 272 269 268 267 266 265 265 265 265 265 266 267 267 268 268 267 267 266 265 266 265 265 265 265
280 280 280 280 280 279 278 278 277 277 277 277 278 279 278 276 276 274 273 274 274 274 273 271 272 272 272 272 271 272 272 271 272 272 274 275 275 277 276 276 275 275 274 272 275 275 276 276 276 276 276 275 274 273 273 274 275 275 274 272 269 268 266 265 265 266 265 266 266 265 265 266 266 267 266 266 264 263 263 262 262 262 262 261 261
280 280 280 280 279 278 277 278 278 276 274 274 275 276 275 275 276 274 273 274 273 271 272 271 271 269 270 271 271 270 270 270 269 267 265 265 265 267 267 267 272 273 270 269 271 271 273 274 274 275 275 275 275 274 273 272 270 269 268 267 267 266 265 265 265 265 265 264 264 264 264 265 265 264 262 262 261 262 263 262 261 260 261 260 260
280 280 281 280 279 278 278 276 277 278 276 275 276 276 275 277 277 276 275 274 273 271 270 270 270 270 270 269 270 267 269 267 266 266 265 262 263 263 264 265 265 266 267 271 273 273 273 274 275 273 272 270 269 268 267 267 268 267 266 263 263 264 266 267 267 265 264 264 263 263 262 262 261 261 261 261 260 260 261 260 260 259 260 259 258
280 279 280 278 278 277 277 277 277 277 276 275 276 277 277 276 276 275 273 271 274 274 272 271 270 270 271 270 269 268 267 268 268 271 267 272 268 265 264 266 266 269 272 275 274 274 273 272 270 269 268 267 267 267 267 268 267 266 264 263 263 262 260 259 260 261 261 261 261 261 260 260 260 260 260 260 260 260 260 260 260 259 259 259 258
279 279 279 278 278 277 276 276 275 275 276 277 276 273 274 277 276 274 272 274 276 278 277 272 271 269 269 267 269 271 270 269 273 275 275 275 275 276 276 276 277 275 275 276 274 271 270 269 268 268 268 268 267 267 267 265 264 263 262 264 263 261 261 261 260 260 261 260 260 260 259 259 259 259 259 259 259 259 260 261 259 259 258 258 257
280 280 279 278 278 277 276 276 275 275 276 276 275 274 270 271 278 278 276 275 276 277 279 278 277 274 271 267 269 275 274 275 275 275 275 276 276 276 276 276 276 275 275 273 271 270 269 268 268 269 268 268 266 265 264 262 261 261 261 261 260 260 260 260 260 260 260 260 260 259 259 259 258 258 258 258 258 258 258 259 258 258 258 257 257
280 281 280 279 278 277 276 276 276 275 274 273 273 271 271 269 269 275 276 277 278 278 278 278 277 276 276 273 269 268 274 275 275 275 275 275 274 275 275 274 274 274 274 274 270 269 269 268 267 266 266 264 263 262 260 259 260 259 259 259 259 259 259 259 260 259 259 259 259 259 258 258 258 258 258 258 258 258 257 257 257 257 257 257 257
280 280 280 279 277 277 276 276 275 274 273 272 271 271 270 271 270 270 272 276 276 277 277 277 277 277 276 276 275 274 274 274 274 275 274 274 273 272 273 273 273 274 274 271 268 267 266 265 264 263 261 259 259 258 258 258 258 258 258 258 258 259 259 259 260 259 259 259 259 258 258 258 258 258 258 258 257 256 257 257 257 257 257 256 256
280 280 280 279 278 277 276 276 275 274 274 273 272 271 272 272 273 271 269 268 269 272 273 274 275 276 276 276 275 275 275 274 273 272 271 271 271 272 272 271 273 273 271 264 262 261 259 258 258 257 257 257 257 257 258 258 258 258 258 258 258 258 258 259 258 258 258 258 258 258 258 258 258 257 257 257 257 257 256 256 256 256 256 256 256
279 276 275 276 277 278 277 276 275 274 273 273 273 272 272 271 270 269 269 269 269 268 268 268 271 272 270 271 272 272 272 272 271 271 271 271 271 271 271 264 261 258 258 256 257 255 255 256 256 257 256 256 257 257 257 257 257 257 257 257 257 257 257 257 257 257 257 257 257 257 257 257 257 257 257 256 256 255 255 256 255 256 255 255 255
278 278 277 276 276 276 276 275 274 274 273 273 272 271 270 269 268 269 270 270 269 268 266 265 264 267 269 269 269 269 269 269 269 270 270 270 270 269 260 256 255 255 255 254 254 255 255 255 255 256 256 256 256 256 256 256 257 257 257 256 256 257 256 256 257 256 257 257 257 257 257 257 257 256 256 256 255 255 255 255 255 256 256 256 256
277 277 277 276 275 275 275 274 273 273 273 270 270 269 268 268 267 268 269 269 267 267 267 264 262 263 265 262 264 266 267 268 268 268 268 267 268 260 253 253 253 253 254 254 254 254 254 255 255 255 255 255 256 256 256 256 256 256 257 257 256 256 256 256 256 257 256 256 256 256 256 256 256 256 255 255 255 255 255 255 256 256 256 256 257
277 277 276 275 273 273 272 272 271 271 270 269 268 268 267 267 267 267 267 267 266 265 264 263 264 263 262 261 263 261 261 264 264 263 262 262 258 252 253 253 253 253 254 253 253 253 254 254 254 254 255 255 255 255 255 255 256 256 256 256 256 256 257 257 257 256 256 256 256 255 255 255 255 255 255 255 254 254 255 255 255 255 255 256 256
274 274 273 273 273 272 271 270 269 269 267 267 266 266 266 266 266 266 266 265 264 264 264 263 262 262 262 260 257 258 259 256 255 255 254 253 252 251 250 251 251 252 253 253 253 254 254 254 254 254 254 254 255 255 255 255 255 255 255 255 255 255 255 255 255 255 255 255 255 255 255 255 255 255 255 254 254 254 254 254 255 255 255 254 255
273 272 271 272 271 271 270 269 269 268 267 267 266 266 266 266 266 266 265 264 264 263 263 262 261 262 260 257 256 254 255 256 255 254 253 253 253 252 250 251 252 252 253 253 253 253 253 253 254 253 254 254 254 254 255 255 255 255 255 255 254 254 255 255 255 255 254 255 255 255 254 254 254 255 254 254 254 254 254 254 255 255 255 255 256
271 270 268 271 271 269 268 267 268 267 266 266 266 266 266 266 266 265 265 264 264 262 262 261 262 260 258 259 262 261 255 255 255 254 254 253 253 252 252 252 252 252 253 253 253 253 253 253 253 253 253 254 254 254 254 254 254 254 254 254 254 254 254 254 254 254 254 254 254 254 254 254 254 254 253 254 255 255 255 255 255 256 256 256 256
270 268 268 268 269 268 267 266 266 266 266 265 266 266 266 265 264 264 263 263 262 262 261 260 260 257 258 262 262 263 257 253 253 253 253 252 252 252 253 253 252 252 253 253 253 253 253 253 253 253 253 254 254 254 254 254 254 254 254 254 254 254 254 254 254 254 254 254 254 254 254 254 254 255 255 256 255 254 254 255 255 255 255 255 256
269 269 268 267 267 267 267 267 266 266 266 265 265 264 264 264 263 263 262 262 261 260 260 259 258 255 255 260 260 261 256 252 255 253 253 252 252 252 252 253 253 253 253 253 253 253 253 253 253 253 253 254 254 254 254 254 254 254 254 253 253 253 253 254 254 254 254 254 253 254 254 254 254 253 253 254 254 254 254 255 255 255 255 256 256
268 267 267 267 267 267 266 266 266 266 266 264 264 263 263 263 262 262 261 261 260 259 259 259 257 255 254 255 256 255 252 251 251 251 251 252 252 252 252 252 252 252 252 252 253 252 252 252 253 253 253 254 254 254 254 254 254 253 253 253 253 253 253 253 253 253 253 253 253 253 253 253 254 254 254 254 254 254 254 255 255 255 255 255 256
267 267 266 266 266 266 265 265 265 265 263 262 262 261 261 261 261 261 260 260 259 258 257 256 255 254 253 251 250 250 250 250 251 252 252 252 252 252 252 252 252 252 252 252 252 252 252 252 252 252 253 253 253 254 254 254 254 254 254 253 253 253 253 253 253 254 254 253 253 253 253 253 253 253 253 254 254 254 255 255 255 256 256 256 256
268 267 265 265 265 264 264 264 263 263 262 262 261 261 260 260 260 259 259 258 257 256 255 253 252 252 252 251 250 251 250 248 250 250 251 251 251 252 251 251 251 251 252 252 252 252 252 252 252 252 252 253 253 253 254 254 254 254 254 254 253 253 254 254 254 254 253 253 253 253 253 253 253 254 255 255 255 255 255 255 256 256 256 256 256
267 266 266 265 265 264 264 263 262 262 262 262 261 260 260 259 259 257 256 256 255 254 253 252 251 251 250 250 250 250 250 250 250 250 250 250 250 251 251 250 251 251 251 251 251 251 251 252 252 252 252 252 253 253 253 253 253 254 254 254 254 254 254 254 254 253 253 253 254 253 253 254 254 254 255 255 256 256 256 256 256 256 256 257 257
267 266 266 265 264 263 262 262 261 260 261 260 260 260 259 258 257 256 256 255 254 253 252 251 250 249 250 249 249 249 249 249 249 250 250 250 250 250 250 249 250 251 251 251 251 251 251 251 252 252 252 252 252 252 253 253 253 253 253 253 253 253 254 255 254 254 255 255 255 255 255 255 255 255 255 256 256 256 256 256 257 257 257 257 258
266 265 265 264 263 262 262 262 261 261 260 260 259 259 257 257 256 255 254 254 253 252 251 251 250 248 248 249 249 249 249 249 249 249 249 250 249 250 250 250 250 250 250 250 251 251 251 251 251 252 252 252 252 252 252 252 252 252 253 253 254 257 256 256 256 255 256 256 256 256 256 256 256 256 257 257 257 257 257 257 257 257 258 258 258
266 265 264 263 263 262 262 262 261 261 259 259 259 258 256 256 255 254 253 252 251 250 249 249 249 249 248 248 249 249 248 248 249 249 249 249 250 249 249 249 249 249 250 250 250 251 251 251 251 251 251 251 252 252 252 252 252 252 252 253 255 256 256 256 256 257 257 257 258 258 258 257 257 257 257 257 257 257 257 257 258 258 258 258 258
264 264 263 263 262 261 261 261 260 259 259 258 258 257 255 255 255 253 252 252 251 251 250 248 247 247 247 247 248 248 248 248 249 249 249 249 249 249 249 249 249 249 249 249 250 250 250 251 251 251 251 251 251 251 251 251 252 252 254 255 256 256 257 257 258 258 259 259 258 258 257 257 257 257 257 257 258 258 258 258 259 259 259 259 259
Wind_Speed
5 6 5 5 4 5 5 4 5 4 4 4 5 5 5 5 6 6 4 4 4 4 4 4 4 4 4 4 4 4 4 4 3 3 3 3 3 3 3 3 3 3 2 3 2 2 2 2 3 4 2 2 4 3 3 3 3 3 3 3 4 4 3 4 7 11 6 4 6 7 8 8 8 7 9 8 9 9 9 8 8 8 8 8 9
7 7 5 5 6 6 6 5 5 4 5 5 5 5 5 5 6 4 5 6 4 5 5 4 4 4 4 5 5 5 4 4 4 3 4 4 4 3 4 4 4 4 3 4 4 3 2 3 3 4 3 3 3 3 3 3 3 3 4 4 5 5 4 3 6 7 12 5 8 6 7 5 8 4 8 10 9 9 10 9 7 7 8 8 8
6 6 6 6 7 6 6 6 5 5 6 6 6 6 6 5 4 6 6 5 4 5 6 6 5 5 5 5 4 4 4 5 4 4 5 5 6 5 5 5 5 4 4 5 4 3 2 3 4 4 3 3 4 4 3 4 3 3 5 4 4 5 5 4 5 8 10 9 5 8 7 7 8 9 8 7 8 7 9 8 8 7 6 8 8
6 5 6 7 7 6 7 6 6 6 7 7 7 7 6 6 4 5 5 4 6 5 5 6 5 5 5 4 4 5 5 5 6 6 7 7 7 7 6 5 5 5 5 5 5 4 4 4 4 4 3 3 4 4 4 3 4 4 4 5 4 6 5 4 4 7 7 11 7 7 8 7 8 7 8 7 8 8 8 9 7 8 8 6 7
5 6 6 8 7 7 8 6 7 8 8 7 8 7 7 6 5 6 6 6 6 5 5 5 5 5 7 6 6 7 7 7 6 6 6 5 6 6 6 5 5 6 6 6 6 5 5 6 5 4 4 4 4 4 5 4 5 4 5 6 5 6 5 5 6 5 8 10 10 6 6 6 6 7 7 9 8 8 8 9 9 9 9 7 7
6 7 7 7 8 9 9 7 9 9 9 9 9 9 8 7 7 6 6 8 6 6 7 6 6 7 7 7 7 8 7 6 7 7 6 6 6 6 6 6 6 7 7 7 7 6 6 7 6 5 4 5 6 5 4 5 4 5 6 6 6 5 6 6 6 7 7 10 9 11 4 7 7 5 7 7 9 11 10 8 7 6 8 9 7
6 7 7 8 8 9 9 9 10 9 10 10 9 7 8 8 7 8 7 7 7 7 7 7 7 7 7 6 7 8 8 7 7 7 6 6 6 7 7 7 8 7 8 8 7 7 7 7 6 5 6 6 5 5 5 5 5 5 6 6 5 5 6 6 6 7 8 10 9 8 9 5 5 9 5 5 7 7 12 12 9 6 7 8 11
6 6 6 7 9 11 9 8 8 10 9 8 8 8 8 7 8 8 6 7 8 9 9 9 9 6 8 7 8 7 7 7 7 7 7 7 7 8 8 8 8 8 8 8 7 7 7 7 7 6 6 6 5 5 5 6 5 5 5 5 5 6 7 7 7 7 9 9 9 10 7 8 7 6 6 6 8 6 5 9 14 12 9 8 8
6 6 6 8 10 9 7 6 7 7 7 8 8 8 9 9 8 7 7 8 8 9 9 8 8 8 8 8 8 7 7 9 8 8 8 9 8 9 9 9 9 9 8 8 7 8 7 6 6 6 5 7 8 7 7 7 5 6 5 4 6 6 7 6 7 8 8 9 10 8 8 8 7 8 8 7 8 10 8 7 11 11 11 12 8
5 6 7 9 9 7 7 6 6 6 7 9 9 9 8 8 7 7 8 9 9 9 8 8 8 10 10 9 8 8 8 8 11 16 12 9 9 8 8 9 9 9 8 8 8 7 7 5 5 7 8 9 9 10 11 12 10 7 7 4 6 6 7 8 8 8 9 10 9 9 10 8 8 7 8 8 7 8 9 8 12 13 12 11 9
5 6 8 9 8 6 6 6 5 7 8 8 8 8 8 7 7 8 9 9 10 10 8 9 10 10 10 10 10 9 9 10 16 14 16 18 12 8 8 9 8 8 8 8 9 8 5 4 4 5 5 6 7 10 11 11 11 14 15 14 12 9 8 9 9 8 9 10 8 8 8 10 9 6 7 9 7 8 9 10 12 12 14 16 17
6 6 8 7 6 6 6 5 6 8 7 9 9 8 7 7 8 9 9 9 10 6 8 11 10 10 9 9 10 11 10 14 15 15 15 16 16 10 7 8 7 7 8 8 8 6 6 5 4 4 4 5 5 5 7 10 12 13 14 15 15 16 15 11 10 9 8 9 9 7 8 10 9 6 8 8 9 10 10 13 12 13 15 15 13
5 6 7 6 7 6 5 6 7 7 8 8 7 6 7 7 9 9 10 10 6 8 11 9 10 10 9 10 11 12 11 14 13 14 16 17 17 13 7 8 8 8 8 8 7 7 6 5 4 4 4 7 6 5 5 6 9 13 14 14 15 15 16 18 18 13 10 10 10 11 7 9 10 7 6 10 10 12 13 11 13 14 14 17 16
5 7 6 6 7 6 5 6 7 8 7 7 6 7 7 9 10 9 8 7 7 9 9 10 9 9 9 10 11 10 10 13 13 14 16 16 15 12 6 8 8 9 9 8 7 7 6 6 5 5 4 3 4 5 5 6 7 6 6 6 6 8 12 16 18 20 15 10 10 12 10 6 11 11 9 9 11 11 14 17 17 14 18 17 18
6 6 7 7 5 6 5 6 7 8 7 6 6 7 8 8 8 8 8 8 8 9 10 9 9 9 9 8 8 9 11 13 10 13 15 15 15 13 7 7 7 7 7 7 7 7 6 5 5 5 4 4 4 6 6 7 7 6 7 7 7 7 7 8 9 8 8 8 9 11 11 9 9 11 10 9 10 12 14 17 16 17 14 17 14
7 6 7 7 7 6 6 6 7 7 7 6 6 8 8 9 10 7 6 7 7 6 7 6 9 9 8 7 8 10 11 14 14 14 15 14 15 8 6 6 6 6 6 5 5 5 4 4 4 4 3 4 7 12 12 9 7 8 8 8 8 7 8 8 12 12 11 10 9 10 10 12 17 16 16 15 14 12 12 12 11 12 15 15 14
8 7 7 8 8 7 6 7 7 7 7 6 7 8 8 9 8 5 6 7 7 7 9 8 8 8 8 7 8 9 10 12 13 14 13 13 9 7 5 6 6 6 5 5 4 4 4 4 3 3 3 5 8 12 14 14 8 8 8 8 7 7 8 6 10 15 18 21 22 24 25 26 25 26 25 26 18 15 12 12 12 12 13 14 16
8 7 8 9 8 7 6 7 8 7 6 8 9 8 7 6 7 5 7 8 8 8 7 7 7 7 7 8 8 8 9 10 11 10 13 12 10 6 6 6 5 4 3 3 3 3 4 5 5 3 4 5 9 13 14 11 7 7 7 9 9 9 8 7 6 7 14 20 23 25 25 24 24 22 21 21 23 20 13 12 12 11 12 14 16
8 9 10 8 7 7 6 6 7 7 7 8 8 8 8 8 6 5 7 6 8 6 6 6 7 6 7 8 9 9 8 8 9 10 11 12 7 5 6 5 5 4 4 4 3 3 3 4 6 6 6 8 12 13 14 11 7 7 7 8 10 10 8 7 8 10 11 11 11 10 9 11 10 11 13 24 25 21 11 10 9 8 12 15 16
10 8 7 7 6 6 6 6 7 7 8 8 7 8 6 5 6 7 6 7 7 7 6 6 7 7 6 6 7 7 7 6 6 10 9 9 10 6 6 6 5 5 4 4 4 3 3 3 5 8 11 12 12 13 14 16 10 7 6 8 12 13 9 9 11 11 10 8 8 9 12 12 13 12 11 10 10 7 7 6 7 9 13 14 14
8 8 7 7 6 7 6 6 8 8 8 8 7 6 6 7 6 5 7 6 6 6 6 6 6 7 5 5 5 5 5 5 5 9 10 11 11 8 5 4 4 4 4 3 4 4 4 4 4 6 10 12 13 15 15 16 15 10 8 10 11 13 16 11 9 13 10 11 12 12 11 10 10 10 10 10 8 8 8 10 9 8 11 13 12
7 6 7 7 7 7 7 7 7 8 7 6 7 8 7 6 6 6 6 5 6 7 5 5 5 6 4 3 4 4 4 6 4 8 10 10 10 10 6 4 5 4 3 4 4 4 3 2 2 5 10 12 14 15 17 17 18 11 11 18 21 22 16 12 11 10 9 8 8 8 8 9 10 10 10 9 9 9 7 7 8 9 8 11 13
7 7 7 7 8 8 7 8 8 6 7 7 7 9 6 5 6 5 5 5 6 6 5 4 4 4 3 2 2 3 3 4 6 5 7 8 7 7 9 6 7 4 4 3 3 2 1 2 2 6 10 13 15 16 17 19 16 13 19 20 21 24 20 10 9 8 8 9 10 10 9 8 9 9 9 9 9 8 7 8 8 8 8 8 10
6 6 7 8 7 7 7 7 7 6 7 7 7 8 7 6 5 6 6 6 6 6 5 4 4 4 5 4 3 3 3 3 4 5 4 6 6 6 5 5 3 4 3 2 1 1 1 2 4 10 13 15 16 17 17 17 14 19 20 21 22 19 10 8 8 9 10 11 11 11 11 9 8 9 9 8 9 9 9 9 10 10 10 10 12
6 7 8 7 8 8 6 7 7 6 7 6 7 7 7 5 6 4 4 4 5 6 5 4 6 6 5 6 5 5 3 3 2 3 5 4 5 5 5 5 3 3 2 1 0 1 4 9 12 14 15 16 17 17 16 16 18 18 18 19 17 8 8 9 10 9 10 11 11 10 10 9 8 9 10 10 10 9 8 9 10 10 9 10 13
7 8 8 7 8 7 7 7 7 7 7 6 7 7 7 6 7 5 5 6 6 6 6 6 6 5 6 5 5 5 3 3 4 3 3 4 4 6 5 5 4 3 2 1 4 8 10 12 15 15 14 12 9 7 7 7 14 17 19 17 10 8 7 8 9 9 10 10 10 11 11 10 10 9 9 10 10 10 9 10 11 11 7 8 11
8 8 9 8 7 6 7 7 7 6 5 5 6 6 6 5 6 6 6 6 6 6 6 6 6 5 6 5 4 3 4 3 4 3 2 3 2 2 2 1 1 1 1 1 3 4 7 8 8 11 11 14 14 13 12 12 10 10 8 7 7 7 6 5 6 8 9 9 10 10 9 10 9 9 9 9 10 9 6 9 10 11 9 8 11
9 9 10 8 7 7 7 9 9 7 6 6 6 6 5 5 6 7 7 7 6 6 6 6 6 6 7 6 5 4 5 3 3 5 3 2 1 1 1 0 0 1 2 3 3 5 6 8 9 3 3 4 5 5 7 7 8 8 6 4 5 5 8 11 11 8 8 8 10 10 10 9 9 9 8 9 9 8 7 8 9 11 10 9 10
9 9 9 7 8 7 7 7 7 7 6 5 5 3 4 5 6 5 2 3 6 7 7 7 7 6 6 6 6 5 4 6 5 4 4 4 2 1 1 2 2 3 5 8 6 4 2 2 2 5 6 7 7 7 7 6 6 5 5 6 5 5 4 3 6 8 7 7 9 10 11 9 11 9 9 10 10 10 7 9 9 9 12 9 12
7 9 8 7 8 6 7 7 6 6 6 6 5 2 2 2 3 5 5 4 6 6 7 7 7 6 6 5 4 7 7 4 4 6 4 3 4 5 5 6 7 6 7 11 8 5 4 5 6 6 7 6 6 6 6 6 8 8 7 6 7 6 7 6 6 7 7 8 9 9 10 9 11 10 10 10 12 10 7 8 11 9 11 12 12
8 8 7 8 8 7 7 7 6 6 6 6 5 6 3 1 1 4 5 5 6 7 7 6 8 9 7 5 2 4 6 6 5 3 3 4 5 6 8 9 9 9 10 7 5 5 5 5 5 4 5 4 5 6 7 7 7 7 9 8 7 7 8 7 6 7 8 8 9 9 9 9 11 11 11 12 12 12 9 7 8 10 10 11 13
9 9 8 7 7 7 7 6 6 6 6 6 7 7 7 5 1 4 4 5 6 8 9 10 10 9 8 8 6 1 2 3 2 3 4 6 6 7 7 8 9 11 11 11 6 4 4 4 3 5 5 6 7 6 6 6 7 7 8 9 9 6 6 8 7 6 8 9 10 10 10 10 11 11 11 11 12 11 10 10 9 10 11 10 11
10 9 8 7 7 7 6 7 7 7 7 7 7 7 8 7 8 4 3 5 5 5 7 8 8 8 8 8 8 6 4 3 5 5 5 4 4 4 6 9 9 10 10 6 2 3 2 3 5 5 5 6 6 6 6 6 7 8 7 8 10 9 7 8 8 9 9 9 9 10 10 11 11 11 11 11 10 12 12 11 11 10 10 12 13
11 9 8 8 8 7 7 7 7 7 7 7 8 8 8 8 7 7 6 4 2 5 6 7 6 6 6 6 5 5 6 5 3 1 1 2 4 5 6 6 7 8 5 2 2 3 4 4 5 5 5 5 5 6 6 7 6 7 8 8 9 8 9 7 8 9 9 9 9 10 11 11 10 11 11 11 10 11 12 10 9 9 11 11 12
9 10 12 9 7 8 7 7 7 7 7 7 7 8 8 6 6 8 9 9 8 7 6 3 4 5 4 5 5 5 4 3 2 3 4 3 3 5 4 3 3 4 5 2 1 2 4 4 5 5 5 6 6 5 7 8 7 7 8 9 9 8 8 8 8 9 9 9 10 10 10 11 11 11 11 12 11 11 11 11 10 9 11 12 11
9 8 7 9 8 7 7 7 7 7 8 7 7 7 6 7 7 7 6 6 6 6 4 3 2 3 5 5 4 2 2 1 2 2 2 1 3 3 2 1 2 3 3 4 3 4 3 5 4 6 5 6 6 7 7 8 8 8 8 8 10 9 9 9 9 9 9 10 11 11 11 10 9 10 10 11 11 13 11 10 11 10 12 12 11
8 8 7 7 7 7 7 6 6 7 6 6 6 6 6 6 6 5 4 6 5 4 5 4 3 1 2 2 1 1 2 2 0 0 0 1 3 6 2 1 2 3 5 5 4 4 5 5 5 5 6 6 7 7 7 8 8 8 8 9 9 9 9 9 9 10 10 11 11 10 10 11 10 9 9 12 12 10 11 12 12 12 13 14 16
8 8 8 7 6 6 5 6 6 6 6 6 5 6 6 6 6 6 6 6 6 6 6 6 5 6 5 4 3 2 0 1 2 2 4 4 3 1 0 1 1 3 5 5 4 5 6 6 5 6 6 6 7 7 7 8 8 8 9 9 9 9 12 12 13 11 11 11 11 10 10 11 10 10 10 11 12 13 12 12 11 14 14 14 13
7 9 9 8 7 6 6 6 5 6 5 5 6 6 6 6 6 6 6 6 7 6 4 6 5 5 5 3 2 0 2 0 1 3 2 1 1 1 1 2 2 4 5 5 5 5 6 7 7 5 6 6 7 7 7 9 8 8 8 9 10 9 9 9 10 10 10 10 11 10 10 11 10 10 10 11 12 11 12 13 12 12 14 14 12
7 6 6 8 5 6 5 5 6 6 5 7 6 6 6 6 7 7 7 7 7 6 6 6 6 5 4 4 3 3 3 5 3 3 2 2 2 2 3 3 5 5 5 5 5 5 6 7 6 6 7 6 7 7 7 8 8 8 8 8 9 11 10 9 10 11 10 10 10 10 10 10 10 11 11 11 11 11 12 12 12 11 12 13 14
6 5 5 6 6 5 5 5 6 6 6 6 6 6 7 5 5 4 6 5 5 5 5 5 5 3 4 5 6 6 5 4 4 3 4 3 3 2 4 4 4 5 5 5 6 5 6 7 6 7 7 7 7 7 8 8 8 8 9 9 9 10 11 11 10 11 11 10 10 11 11 11 11 11 13 12 12 12 12 11 13 11 14 14 14
5 5 5 5 6 6 5 5 4 5 6 5 6 6 4 4 6 6 5 5 3 4 5 4 3 3 4 6 5 6 3 3 2 3 2 2 3 5 4 5 5 5 5 5 6 6 6 6 7 6 7 7 7 7 7 8 8 9 9 9 10 11 11 11 11 11 11 11 11 10 12 12 13 13 14 13 14 11 12 13 13 11 12 10 13
6 6 6 5 6 7 7 6 6 6 6 6 6 4 4 6 6 4 5 4 5 4 5 4 3 2 2 4 3 4 1 1 3 2 3 3 4 4 4 5 5 5 5 5 5 6 6 7 7 7 7 8 7 7 8 9 8 9 10 10 10 11 12 12 11 11 10 10 11 12 11 13 12 12 12 12 11 12 12 14 14 13 13 13 15
5 4 3 5 4 4 4 6 6 5 6 6 6 5 5 5 5 5 5 4 4 4 4 4 4 4 2 2 1 1 2 2 2 4 4 4 4 5 5 5 5 5 5 6 6 5 6 7 7 8 7 8 8 7 8 8 8 9 10 11 11 12 12 11 11 10 11 11 12 11 12 11 12 12 13 13 11 13 12 13 12 13 13 14 14
5 5 5 5 4 5 5 4 6 6 6 5 7 6 4 6 6 5 5 4 3 3 4 3 2 2 3 2 2 3 4 4 4 4 5 5 5 5 5 5 5 6 6 6 6 6 6 7 7 8 9 8 8 8 8 8 8 8 9 10 11 12 11 11 11 11 10 11 12 13 12 12 12 12 12 13 13 14 15 12 13 16 18 15 15
5 5 5 5 5 4 5 5 4 8 10 11 10 8 7 5 5 5 4 4 4 4 4 3 2 3 4 4 3 5 4 3 5 4 6 5 5 5 5 5 5 5 6 6 6 6 7 7 7 8 9 9 9 8 9 9 9 9 9 9 10 11 11 11 10 11 11 11 11 11 12 13 13 13 16 14 13 12 13 16 15 14 16 16 18
5 5 6 5 6 5 5 5 8 9 8 7 8 8 7 6 5 4 3 4 4 4 4 4 3 4 4 4 4 5 4 3 5 5 5 5 5 5 5 5 5 6 6 6 6 7 7 7 7 8 8 9 9 10 10 9 9 9 9 9 9 11 11 10 10 10 11 11 11 10 12 12 14 15 17 17 15 15 15 15 15 17 17 15 16
5 5 7 6 6 8 9 9 8 6 6 5 6 6 5 4 5 4 4 4 4 4 3 3 4 4 4 4 4 4 4 4 4 6 5 5 5 5 5 5 6 6 6 7 7 7 7 7 7 7 8 9 9 9 10 10 10 10 10 9 10 11 13 15 13 12 11 11 11 13 13 13 14 15 15 15 15 15 16 16 15 14 14 13 15
7 8 7 7 8 11 10 9 6 9 9 8 6 5 4 5 5 4 4 5 5 4 4 5 4 3 3 4 4 5 4 5 5 5 5 5 5 5 5 5 6 6 6 7 8 8 8 8 7 8 8 9 9 10 10 10 11 11 11 10 13 22 24 23 17 15 18 16 14 14 14 14 14 16 17 17 18 13 16 16 16 16 14 15 13
6 7 8 6 6 7 5 6 7 7 5 6 7 6 5 4 4 4 4 4 3 3 3 3 3 4 4 3 5 4 3 4 5 5 5 5 5 5 5 6 6 6 7 7 8 8 8 8 8 8 8 9 9 9 10 10 11 12 12 13 20 25 24 26 25 26 20 12 12 12 12 14 15 14 16 15 17 18 16 17 17 16 15 14 15
5 7 6 7 8 8 7 6 6 6 7 7 6 6 5 4 4 4 4 4 5 5 3 4 4 3 3 4 5 4 4 4 5 5 5 5 5 5 6 6 7 6 7 7 8 8 8 8 8 8 9 9 10 10 10 11 11 12 16 24 27 26 27 26 19 19 26 22 16 15 15 16 16 18 15 15 14 16 17 18 18 16 15 14 13
Wind_Direction
212 220 208 217 203 203 210 206 208 207 200 200 191 197 192 192 191 194 185 205 198 197 199 204 201 201 197 206 194 200 202 220 216 181 189 204 221 212 219 203 208 243 238 274 279 242 233 230 267 269 268 280 273 279 285 275 278 274 273 262 272 267 261 254 280 290 288 274 297 302 309 314 312 315 312 315 319 320 318 313 312 314 315 314 313
213 217 210 206 205 211 215 215 211 203 207 216 215 214 207 202 201 190 194 212 187 202 201 206 205 209 201 211 208 205 208 208 211 193 202 216 231 226 220 217 226 237 217 236 263 253 235 227 260 266 268 251 268 272 265 282 279 286 286 271 267 275 252 254 272 284 296 310 302 301 301 301 295 303 306 313 312 313 310 308 305 306 307 306 305
212 208 208 208 217 213 211 214 210 213 212 220 221 221 222 220 212 203 209 212 207 200 205 205 209 209 216 218 214 216 212 216 214 199 209 207 215 222 218 212 215 226 224 236 240 243 246 233 246 254 268 271 271 270 271 275 273 271 282 277 271 271 268 247 274 288 296 298 295 300 300 307 304 308 304 296 295 295 295 296 301 300 293 294 296
219 211 215 220 219 215 217 217 208 213 218 221 223 225 220 221 216 220 220 216 215 221 212 214 213 214 216 224 218 221 223 223 220 209 211 210 213 220 221 220 221 226 227 235 236 231 234 244 247 240 245 253 271 273 277 272 278 278 280 283 272 276 271 266 248 275 289 298 298 293 299 303 299 296 296 295 299 300 295 297 291 290 290 287 289
218 220 218 224 223 220 225 216 214 218 221 222 226 226 224 220 216 219 219 223 225 220 229 222 221 217 219 218 221 222 226 224 224 225 226 221 220 222 226 223 227 230 232 232 230 222 229 226 237 225 223 244 265 268 268 278 278 280 280 280 280 276 277 271 276 275 287 290 294 279 285 285 279 291 294 305 305 296 298 298 301 301 296 291 296
220 221 221 224 228 226 226 218 219 219 221 224 225 223 220 218 219 221 212 223 223 223 224 226 220 226 225 223 222 227 229 228 226 227 227 226 227 230 228 226 227 230 234 232 229 222 222 228 230 222 223 223 248 259 265 268 276 277 278 277 276 279 278 281 274 279 279 281 288 298 275 293 296 277 294 296 305 308 301 295 294 292 298 304 292
222 223 223 225 232 231 226 222 220 221 221 224 223 222 221 220 217 221 215 218 220 224 227 228 231 227 233 229 231 231 232 232 231 233 233 230 228 229 232 228 230 231 234 233 230 226 224 226 225 217 221 225 236 250 260 270 268 270 270 274 278 280 282 280 281 281 281 287 286 278 293 276 277 301 288 283 293 295 306 311 297 290 295 297 304
223 224 223 231 235 237 230 227 224 226 227 226 226 225 224 222 220 224 211 218 222 225 225 224 231 223 232 229 234 231 235 237 236 232 231 230 229 233 231 231 232 235 237 237 233 230 228 224 222 219 215 227 232 245 243 261 266 272 269 274 274 279 280 284 286 284 286 287 285 296 290 298 295 269 290 304 299 291 290 310 310 313 307 292 287
224 223 225 233 239 238 235 230 230 230 230 230 231 230 227 226 223 218 216 223 225 225 226 224 228 231 234 232 236 231 230 237 233 229 227 232 226 233 233 233 235 237 240 240 237 236 233 227 223 224 221 232 235 240 243 243 253 264 271 269 279 276 282 281 283 285 283 284 290 287 293 296 290 302 308 307 306 308 314 309 293 298 302 299 288
218 224 227 237 243 240 234 232 230 227 229 231 231 231 231 228 224 223 223 224 227 227 226 225 224 229 232 233 233 232 233 236 237 233 225 226 227 227 233 234 234 235 238 241 243 237 234 224 225 223 233 245 255 262 266 269 268 270 278 273 275 279 279 286 285 283 286 287 288 298 297 291 299 301 299 296 301 304 304 302 300 302 300 293 290
217 220 235 241 244 241 233 235 224 231 229 233 236 232 233 227 225 230 230 228 229 228 223 227 228 228 229 232 232 231 234 236 236 232 231 230 230 227 227 234 233 233 233 234 240 238 229 218 222 242 249 263 266 266 269 273 279 282 283 283 284 286 291 288 284 282 286 283 289 292 286 291 293 300 296 304 307 300 301 300 297 301 310 314 314
223 229 238 248 245 238 234 231 226 234 231 234 235 232 230 226 228 230 232 233 233 223 225 230 232 231 231 234 236 237 238 239 234 233 232 231 235 232 227 233 233 229 229 231 234 230 220 210 222 220 239 244 249 262 270 274 277 278 280 283 284 285 283 285 291 290 283 289 290 280 291 289 297 308 303 307 305 301 297 300 298 305 308 308 304
231 241 246 243 247 240 232 226 231 236 233 234 234 232 228 231 234 232 234 234 228 222 231 231 235 233 231 234 238 242 243 249 239 234 241 246 247 241 223 226 229 228 228 226 223 214 204 205 219 227 233 245 253 261 262 267 271 275 279 281 282 282 284 284 283 282 291 287 286 289 285 298 298 296 297 298 297 293 297 298 303 304 303 301 301
229 247 250 247 246 240 232 227 236 240 239 234 231 230 229 233 234 233 238 238 227 235 237 234 239 236 232 233 242 249 250 254 247 244 251 254 253 248 226 226 226 227 223 218 209 202 194 197 210 233 238 241 252 258 261 262 268 271 269 266 267 270 275 279 282 285 286 286 289 288 291 286 287 294 292 286 285 288 303 304 305 304 303 301 304
252 247 251 254 246 244 234 230 239 246 243 238 233 233 233 241 241 237 231 234 230 231 236 237 240 239 238 234 239 249 252 249 243 250 254 254 253 251 238 227 222 221 218 208 198 189 190 194 210 228 238 250 248 260 269 276 278 276 274 276 272 272 269 271 275 278 280 279 278 280 284 283 280 282 282 281 283 296 300 301 305 306 305 304 300
256 256 254 256 250 241 229 233 238 245 245 239 234 238 236 235 240 238 232 240 238 239 246 233 242 241 238 230 229 245 254 254 255 255 255 253 253 250 234 220 211 209 204 187 180 185 185 199 208 225 239 248 265 278 283 286 285 283 283 281 280 275 266 262 270 276 279 278 276 280 281 285 291 291 295 297 296 297 300 302 307 309 308 306 303
255 251 252 254 251 241 226 230 238 240 240 238 237 239 239 241 243 227 234 239 238 233 235 235 236 240 244 234 229 244 254 257 254 252 253 251 245 233 207 197 196 194 192 170 168 182 193 199 198 217 254 259 272 283 286 291 286 285 286 286 286 283 280 277 275 280 285 287 287 289 290 292 293 294 295 297 300 306 311 307 302 311 311 306 302
254 251 251 250 248 243 230 225 235 240 235 234 238 241 238 244 242 213 221 237 239 236 235 243 243 234 238 242 231 237 249 254 251 245 248 242 233 203 185 181 185 176 153 151 162 182 202 207 217 222 250 264 277 282 287 293 292 293 292 291 289 286 285 283 282 278 280 280 279 283 288 291 294 298 302 304 304 304 307 301 309 314 298 297 299
254 249 249 248 247 241 235 229 233 238 239 239 236 241 237 233 233 209 223 228 240 240 228 233 245 238 229 238 238 233 246 253 244 236 236 236 202 156 162 159 161 164 157 184 187 189 206 220 235 240 247 266 279 287 294 298 293 288 286 288 289 289 290 293 287 283 276 272 276 284 293 300 304 302 299 299 298 300 297 290 300 296 298 299 297
246 246 250 251 247 243 233 231 234 233 240 246 240 237 237 233 230 219 224 219 234 236 227 226 238 245 230 226 235 229 236 244 237 231 211 163 151 143 143 147 170 174 182 185 203 216 212 219 233 253 272 282 288 292 293 294 293 293 291 287 290 289 293 287 276 274 283 294 296 298 297 299 297 292 284 278 282 283 292 293 292 290 289 290 291
246 245 244 247 247 244 236 226 237 237 232 239 242 242 228 231 233 219 227 224 227 239 231 229 232 247 237 226 225 226 213 213 221 190 166 157 153 140 151 162 165 172 176 192 198 220 220 218 207 251 277 285 288 289 292 293 293 290 285 284 283 284 289 286 294 307 305 304 302 298 290 286 288 294 295 295 296 296 288 285 275 267 276 285 287
240 241 241 241 242 243 240 238 229 239 240 231 244 246 236 226 228 226 226 220 224 233 234 230 229 244 240 220 204 206 205 188 171 166 162 162 164 153 153 177 161 149 180 197 219 223 218 210 184 266 279 284 289 294 294 295 294 291 284 285 287 293 300 308 308 307 300 293 290 292 297 298 294 291 290 289 286 285 277 274 275 276 270 271 277
236 235 238 240 240 239 239 237 237 229 237 227 230 244 238 223 230 220 220 224 226 237 236 228 220 225 223 227 215 190 179 179 159 156 167 170 180 172 161 155 180 162 172 199 205 224 153 224 239 272 285 290 291 293 295 295 295 288 289 293 297 301 303 302 302 303 302 302 299 292 291 290 289 287 289 288 287 286 283 281 276 278 273 269 268
235 236 238 238 241 241 237 238 235 232 232 230 228 239 241 228 226 217 216 215 222 233 234 210 201 203 204 214 226 218 194 167 171 162 170 183 193 192 200 194 173 124 151 152 107 100 262 257 253 274 286 292 295 295 294 293 293 296 298 298 298 300 304 310 311 304 300 296 293 288 287 284 282 283 284 286 291 296 298 298 293 291 288 285 280
232 238 241 239 239 241 239 237 235 230 232 218 228 232 241 225 232 232 205 216 216 221 226 195 203 208 201 205 208 206 202 161 131 135 133 129 129 109 97 87 56 23 49 87 118 192 253 276 286 293 296 296 296 297 297 293 290 290 291 293 301 317 313 303 296 295 289 284 282 280 278 276 277 282 288 294 298 300 301 295 291 286 282 279 278
238 239 242 240 240 237 241 247 240 238 234 218 223 225 222 215 219 220 198 215 212 212 217 200 209 203 208 209 204 204 191 154 133 102 86 87 80 77 75 61 38 358 338 289 289 296 300 298 295 294 292 289 288 276 265 276 293 299 300 303 302 292 286 284 282 282 277 283 284 284 286 290 290 290 295 297 297 296 303 297 298 293 290 287 289
241 244 244 243 242 232 235 245 247 242 233 231 229 229 220 212 213 217 207 212 214 218 212 202 208 205 215 213 207 199 190 170 152 136 101 95 90 81 68 52 48 25 345 282 283 279 278 277 274 277 278 285 291 300 305 305 304 295 283 276 274 270 266 259 270 279 283 284 285 284 288 289 293 295 294 290 286 287 289 289 290 290 296 290 287
235 242 242 238 238 227 231 240 241 246 233 215 222 227 223 210 210 213 207 205 203 221 209 210 207 204 212 203 197 192 202 193 194 181 174 134 122 102 120 111 262 206 245 257 251 253 254 256 270 294 316 316 303 289 277 269 269 269 268 266 266 271 280 285 285 282 283 285 285 290 288 291 286 287 291 286 284 284 289 285 284 290 290 296 289
236 244 245 240 242 227 228 232 230 232 236 225 225 215 216 211 219 239 240 182 195 195 201 213 212 209 191 184 181 198 204 216 227 189 184 178 167 172 294 261 247 260 246 258 261 243 240 285 317 294 289 285 280 270 268 274 280 281 290 293 287 277 273 265 274 278 279 286 286 288 291 295 292 294 292 290 287 290 293 289 280 277 290 284 278
240 244 239 237 241 230 229 232 228 224 224 223 214 243 42 145 203 204 234 201 196 207 184 199 199 181 181 206 187 179 198 204 179 175 186 219 254 259 250 254 261 273 282 296 305 304 287 276 272 268 271 271 278 286 295 302 300 299 293 287 288 291 284 277 269 279 282 281 284 289 291 296 292 296 294 289 291 289 278 273 287 286 286 288 285
241 245 237 236 230 224 224 228 219 215 213 205 193 193 200 353 101 187 183 184 190 199 194 180 164 170 167 166 201 140 142 155 173 200 234 263 271 272 276 278 282 285 293 299 282 258 260 260 266 275 282 287 290 295 299 297 293 295 294 294 286 282 286 284 281 284 287 288 287 284 285 285 287 290 289 289 290 290 289 270 264 278 276 279 282
235 240 234 235 228 222 220 220 210 202 207 194 189 188 187 173 76 78 105 122 134 140 139 138 143 149 142 133 129 63 145 169 204 226 238 248 256 266 275 282 288 289 286 289 281 274 277 284 289 286 297 294 286 290 291 289 288 285 287 293 289 282 280 285 289 286 286 287 287 287 285 282 282 284 282 283 285 285 286 287 279 280 280 275 269
232 241 237 231 226 220 215 212 210 202 201 192 195 187 186 189 182 162 96 82 94 114 133 139 145 147 143 145 149 148 170 201 221 226 231 243 270 286 280 281 282 286 294 292 274 301 327 302 290 288 285 280 284 282 278 273 277 281 279 280 286 291 285 281 290 285 280 278 281 280 282 281 281 281 279 279 282 283 286 281 284 278 278 281 280
227 230 229 224 220 220 212 213 209 210 204 198 195 191 200 194 190 165 154 133 90 65 70 84 100 123 134 142 155 165 182 196 195 113 168 234 257 266 272 279 287 294 334 38 351 287 293 281 275 270 271 269 271 278 281 280 278 279 282 279 278 283 285 289 284 281 280 277 276 276 278 278 276 279 282 281 273 275 278 279 280 282 282 277 281
230 235 233 223 213 219 214 209 207 204 198 199 196 197 198 190 171 170 178 181 183 180 171 116 91 111 107 108 120 126 137 164 182 213 218 236 261 288 327 21 350 340 347 1 329 263 267 269 275 278 277 281 281 281 281 283 282 279 280 284 285 284 285 284 278 280 280 280 276 274 274 276 277 274 276 283 287 280 278 282 280 274 278 282 279
227 230 228 220 220 219 212 208 202 199 198 201 194 191 179 171 178 186 183 180 175 167 141 145 101 46 99 107 100 103 92 73 223 225 228 254 306 28 63 341 327 295 294 290 282 280 265 262 265 273 272 275 276 277 273 277 279 281 280 281 283 286 285 282 282 281 279 277 276 277 277 274 270 276 277 273 271 276 280 279 281 279 277 277 278
223 226 224 218 214 215 211 204 203 199 192 180 169 169 169 171 169 164 169 168 166 160 162 143 112 76 58 20 32 157 164 195 357 31 11 316 46 80 138 160 211 265 272 275 281 276 278 269 262 269 270 269 272 270 277 276 278 281 281 279 280 283 282 280 278 279 282 282 280 278 277 276 276 273 273 279 280 274 276 280 280 278 277 280 286
217 219 220 213 206 203 200 201 196 179 172 162 166 161 160 165 167 171 169 168 161 159 156 165 176 181 194 214 114 90 36 69 95 45 33 26 40 64 128 177 198 226 258 263 256 259 266 272 262 261 265 263 268 272 274 276 278 280 283 285 283 276 280 282 283 281 276 277 280 281 279 277 276 276 277 274 277 282 281 277 279 284 282 277 274
224 224 215 200 194 192 190 176 168 164 161 156 159 159 165 162 162 160 161 152 153 156 161 157 178 193 202 156 159 325 137 152 211 236 245 213 195 185 184 214 229 247 249 252 260 259 261 268 267 260 260 261 264 269 271 278 280 278 280 285 286 285 284 282 281 279 278 277 281 280 279 279 278 276 273 276 276 276 278 279 275 277 282 283 276
215 215 205 191 185 185 175 175 166 166 168 161 166 164 157 167 169 170 160 160 165 168 162 167 183 203 165 141 173 151 168 213 218 232 240 258 239 223 194 225 240 242 256 263 256 255 262 263 263 265 263 261 263 269 270 275 279 281 282 280 284 287 283 281 281 282 281 281 280 281 279 278 278 279 276 269 273 276 277 279 278 274 274 278 281
205 193 186 191 178 164 159 162 172 172 166 168 164 167 174 168 162 158 158 165 162 158 168 184 185 164 162 187 190 182 183 209 218 218 223 237 244 244 242 238 233 250 249 251 257 254 255 263 264 263 264 263 265 270 276 277 279 282 281 281 281 280 283 282 280 280 282 281 280 282 282 281 282 283 282 278 272 273 276 277 280 278 278 278 277
178 173 178 178 167 163 164 170 163 151 153 155 162 167 157 156 153 149 158 160 165 173 178 187 183 157 184 197 211 221 206 202 195 218 241 234 242 251 246 247 242 238 248 247 251 260 263 263 265 264 268 270 269 272 277 278 281 281 283 282 281 282 283 282 282 282 282 282 280 275 279 281 283 280 278 283 287 284 280 278 274 273 271 269 275
178 178 174 165 169 174 173 166 151 153 151 157 158 142 134 135 143 150 154 162 168 170 177 184 173 155 198 218 222 237 208 185 217 241 245 255 254 259 255 253 251 249 248 253 251 252 260 265 269 269 268 272 270 271 272 275 280 282 282 281 280 280 281 283 284 284 282 280 279 279 278 282 281 280 279 280 278 275 273 278 280 276 274 271 270
166 159 159 163 165 150 147 146 155 157 158 146 135 137 141 137 138 145 155 165 169 171 175 181 162 171 202 238 254 235 229 245 243 249 252 260 262 262 262 258 261 263 264 261 262 255 260 265 269 271 269 270 273 270 268 269 270 274 277 281 281 279 279 280 281 281 286 286 284 282 282 279 280 280 281 280 277 277 274 272 269 272 272 273 271
151 153 153 154 157 153 150 149 150 143 136 126 114 118 129 138 146 139 155 163 164 167 174 172 167 179 193 212 208 221 236 238 247 251 256 254 259 263 264 269 266 266 268 268 263 262 260 263 267 273 277 275 272 273 272 270 266 265 268 272 277 278 277 275 276 280 281 281 283 285 284 282 281 279 276 275 272 274 276 272 272 276 278 272 270
156 152 152 152 150 152 153 152 148 137 136 137 133 133 126 128 131 144 157 162 162 170 179 183 188 197 207 216 224 222 236 230 247 244 254 257 257 261 262 264 269 269 266 269 268 264 261 260 265 270 274 277 279 277 275 274 272 268 266 262 263 269 273 277 278 280 277 275 278 278 280 281 277 277 277 277 276 270 270 274 271 268 270 273 276
147 153 156 155 157 156 155 148 128 138 119 137 120 131 130 128 124 136 157 164 169 174 179 190 188 211 216 219 223 236 234 236 243 250 251 254 260 264 270 272 275 276 274 272 269 267 266 266 264 268 272 275 278 278 280 278 276 274 270 268 266 270 272 275 274 271 273 272 270 273 276 278 280 283 280 279 276 276 272 273 275 275 275 270 273
145 136 136 145 148 138 127 139 143 148 133 131 134 114 124 128 136 160 166 170 175 184 188 194 199 218 219 239 232 239 242 244 251 252 260 264 266 271 274 277 278 277 280 279 276 273 271 271 273 272 276 278 279 280 280 281 280 278 276 273 269 268 269 271 275 275 274 274 272 274 275 276 276 277 277 277 275 278 279 281 277 274 270 269 271
140 141 131 149 148 150 145 156 156 152 139 124 137 137 124 134 166 170 173 176 183 192 188 202 215 217 225 242 241 248 250 259 259 268 266 269 274 275 277 275 278 279 281 280 281 280 281 280 279 278 277 279 278 279 281 281 281 281 279 276 276 278 279 280 281 280 281 280 279 275 273 269 270 275 278 280 280 276 275 276 276 276 275 272 268
142 155 149 155 147 143 110 92 90 105 115 123 129 124 147 154 166 170 178 179 188 196 206 207 213 219 219 244 252 255 254 257 263 267 273 278 278 279 279 278 277 277 275 278 281 282 284 284 284 283 281 280 281 280 279 280 280 281 280 278 279 281 282 283 284 284 283 279 279 279 281 281 280 276 278 277 279 279 277 276 274 273 273 271 272
138 149 125 121 122 116 127 136 137 128 129 123 135 141 163 173 184 177 181 187 201 209 204 213 220 229 231 234 241 256 258 265 261 268 269 275 276 280 279 279 279 279 279 278 282 282 283 285 287 285 285 283 283 281 280 278 279 277 279 281 285 288 290 291 290 292 295 296 292 289 285 283 281 282 277 279 279 279 275 277 277 277 277 276 274